Wind_Speed
24 12 5 19 31 34 36 32 30 17 20 19 19 14 9 15 22 25 13 5 6 4 9 16 23 31 36 33 24 24 25 26 24 28 26 24 20 14 13 16 20 21 15 15
25 10 22 25 31 38 18 30 29 15 14 16 14 11 8 10 11 18 18 4 3 6 8 13 22 36 33 28 28 25 26 28 28 28 26 27 24 21 22 19 21 21 21 14
21 28 18 20 26 27 36 30 20 13 11 5 6 11 17 10 9 11 15 8 4 7 9 11 19 28 38 33 24 27 25 24 26 28 25 23 22 26 20 21 27 18 17 18
33 27 26 29 17 18 27 24 23 9 9 7 3 10 10 12 4 6 11 10 1 4 8 12 22 30 40 38 25 37 27 25 25 27 28 29 21 23 21 22 22 27 27 25
37 31 26 27 24 25 32 28 26 12 9 4 6 12 8 15 2 1 5 9 11 2 8 8 12 20 34 38 36 33 32 35 32 30 25 28 28 30 28 23 24 22 28 34
41 14 28 26 25 30 34 32 20 12 13 16 16 11 12 11 9 3 2 5 6 8 7 4 15 15 18 24 35 39 35 28 32 31 31 28 27 21 22 23 24 20 14 26
42 52 42 37 34 32 30 36 24 25 16 15 11 30 26 10 23 8 6 3 6 4 4 10 5 2 17 23 23 27 36 35 34 31 29 29 26 27 28 26 24 27 29 31
33 37 41 38 33 26 34 29 14 20 23 29 21 11 29 31 27 19 12 8 2 11 8 8 5 4 9 9 15 26 29 30 30 31 33 33 32 32 33 35 36 36 34 19
32 33 26 28 29 31 40 42 21 29 35 35 30 33 19 30 34 24 16 7 15 28 19 16 18 9 3 4 3 3 12 20 24 30 36 39 41 40 38 38 40 37 29 24
27 23 24 27 24 30 46 44 32 34 36 39 39 31 10 18 28 35 23 18 19 22 12 22 15 15 9 5 10 6 5 8 13 15 19 25 30 33 34 33 34 34 28 27
20 21 24 22 22 28 54 50 42 39 43 44 50 49 33 20 28 33 25 19 24 23 24 29 24 20 14 11 10 6 9 8 8 10 11 13 18 22 23 20 20 21 22 22
25 25 35 37 31 30 28 43 50 49 44 42 42 49 48 43 36 33 29 23 25 25 28 24 26 23 20 17 14 12 10 11 12 11 11 9 9 12 13 12 12 14 17 17
44 38 38 40 37 29 25 32 38 39 47 35 19 22 31 36 33 30 29 26 26 26 31 32 27 31 27 22 20 15 14 13 13 13 14 11 10 10 12 14 14 16 17 18
42 47 35 19 24 26 26 28 28 31 21 11 21 18 6 8 13 23 29 30 28 30 31 28 28 28 29 26 23 22 18 17 13 14 17 16 14 15 17 16 16 17 17 19
37 36 38 32 18 18 21 24 26 23 18 27 20 14 15 18 23 16 22 25 28 30 33 32 27 28 28 23 20 23 24 24 22 20 20 21 20 18 19 17 17 15 16 14
31 38 33 21 14 24 25 24 23 23 31 24 14 14 2 25 23 19 17 23 29 32 32 32 31 31 26 26 22 21 22 26 25 22 23 23 24 25 22 20 20 26 22 19
34 24 20 31 32 32 27 29 21 24 25 26 16 16 18 36 43 33 21 24 27 32 33 36 37 35 31 28 25 26 25 24 24 23 25 26 26 28 27 27 26 25 26 24
33 31 12 27 42 36 36 25 26 24 19 19 24 16 19 30 20 20 23 24 25 29 35 35 44 42 38 36 32 31 31 30 28 29 31 33 31 28 31 32 34 36 33 37
41 48 47 19 45 39 29 22 21 13 15 16 17 26 31 43 43 50 37 38 30 29 30 30 38 47 44 44 44 40 40 38 38 36 39 41 40 42 41 39 38 43 44 43
37 42 40 36 37 33 20 15 23 19 17 10 13 11 40 36 34 42 53 50 35 25 27 30 32 43 51 52 51 49 48 46 46 49 47 48 50 50 51 52 50 52 50 52
31 32 33 33 32 31 25 27 23 32 23 14 3 24 37 34 34 37 45 47 33 26 24 23 24 28 31 32 33 36 39 41 46 49 49 49 50 51 52 53 54 54 56 61
23 24 24 22 23 19 27 25 27 37 35 20 25 27 38 50 50 38 37 35 26 17 15 14 15 16 17 17 18 20 24 28 31 33 35 37 39 41 43 46 48 50 51 52
15 15 16 16 18 21 21 22 26 37 45 47 45 24 30 28 23 26 24 20 13 10 11 14 15 15 13 13 15 17 19 21 23 26 28 29 32 34 35 37 39 42 43 45
14 15 16 17 18 22 22 23 25 30 34 40 35 23 11 14 16 16 16 10 8 8 8 9 9 9 9 11 12 14 14 15 16 18 18 19 20 21 23 26 29 32 33 35
16 18 18 20 20 20 22 24 26 30 32 28 25 21 20 18 17 14 10 8 5 7 9 10 8 8 9 9 9 9 10 12 14 16 18 19 18 17 16 18 20 21 24 29
18 19 19 19 20 21 20 21 22 24 26 26 25 22 20 16 11 8 5 7 12 12 13 12 9 8 7 7 8 8 10 12 14 17 18 18 16 16 16 15 14 18 19 20
Wind_Direction
168 65 37 203 218 221 235 263 264 247 242 262 274 293 348 344 348 356 353 3 101 115 118 161 174 177 177 182 185 184 198 207 191 206 205 222 234 237 225 244 276 270 262 263
189 156 259 245 254 236 236 256 254 234 231 218 278 288 327 340 348 4 6 9 125 138 167 168 178 175 175 172 179 195 203 207 209 217 235 237 243 251 246 239 252 248 266 277
195 184 243 248 226 240 249 239 235 225 225 266 280 335 285 325 336 13 12 6 319 153 143 179 193 191 176 182 184 188 204 214 223 237 245 238 243 243 257 245 251 250 272 290
179 194 218 218 210 230 215 201 220 194 81 6 244 315 263 305 276 348 17 29 345 200 164 170 194 195 190 203 218 201 207 213 229 235 236 243 247 240 254 244 255 276 289 297
184 196 212 223 223 217 192 191 207 189 187 187 325 300 301 238 299 58 21 32 47 318 218 212 207 208 215 219 225 219 220 221 233 241 255 252 262 260 263 250 260 272 291 289
187 164 249 220 212 212 196 198 196 192 247 265 226 188 307 277 289 248 71 350 2 65 56 225 224 224 222 226 231 237 238 232 235 243 249 253 257 253 255 250 251 252 270 271
195 195 212 219 223 214 197 186 187 197 235 265 249 264 256 260 293 314 265 12 295 350 51 100 96 193 236 235 230 235 241 241 241 241 241 239 237 239 244 251 253 254 251 267
216 208 207 213 215 196 180 185 177 202 192 214 207 267 260 258 274 286 286 311 203 243 259 267 250 250 195 216 237 239 238 242 241 239 242 245 244 245 249 252 255 253 257 263
214 211 199 212 207 183 174 191 213 212 221 219 218 241 266 254 259 265 264 221 223 236 230 268 252 243 275 236 189 227 236 239 243 245 245 246 247 247 246 249 254 255 253 244
214 200 205 200 201 190 180 192 214 209 218 215 211 208 229 228 237 254 255 235 209 233 230 254 240 236 247 246 253 260 220 234 237 241 246 243 239 238 240 245 252 254 243 235
189 186 187 194 201 203 188 200 206 210 210 211 207 224 235 244 241 248 236 233 237 238 234 231 247 226 236 244 249 272 277 251 254 252 240 233 227 227 228 231 238 251 251 236
147 190 184 187 222 223 201 214 218 222 228 222 210 229 239 248 253 248 244 242 244 240 229 229 228 244 242 252 259 265 261 286 279 277 268 264 235 223 224 223 227 239 251 245
183 185 188 212 218 222 234 217 215 216 228 234 212 230 247 246 248 240 243 245 251 250 230 239 245 237 241 245 257 254 265 262 264 261 257 248 246 242 240 236 230 231 239 246
197 204 203 206 237 238 232 225 225 227 228 163 156 189 249 285 263 255 249 245 254 254 232 237 243 249 248 245 249 251 253 259 259 265 261 256 257 252 243 242 240 234 236 239
209 200 210 202 227 242 233 233 233 230 166 144 139 171 223 262 272 277 255 256 253 249 239 233 240 241 245 241 253 247 247 253 251 261 268 260 257 262 250 246 245 239 237 233
201 202 203 173 198 228 238 250 230 216 180 158 159 185 171 282 275 286 287 261 253 249 243 239 246 244 241 241 250 251 251 252 256 258 259 258 254 259 257 259 249 239 235 227
195 177 181 193 199 219 239 252 231 233 189 191 193 175 232 252 247 274 276 265 257 256 244 240 244 248 250 248 250 252 250 255 256 261 256 255 261 268 265 262 257 246 237 228
182 163 203 237 210 222 254 254 240 237 174 190 207 205 196 207 261 270 274 280 278 261 248 250 241 247 252 250 255 261 253 251 257 257 258 255 258 268 268 266 259 257 252 248
185 199 213 207 191 218 230 224 224 227 122 132 209 238 252 249 266 286 283 282 281 260 249 247 247 245 247 253 260 258 258 259 261 262 268 261 260 261 265 262 261 264 262 260
206 211 220 225 217 231 224 218 208 166 147 153 166 136 252 267 270 278 277 276 280 263 250 246 242 245 247 255 252 258 258 259 264 270 267 270 271 270 270 270 271 268 265 262
203 205 210 215 214 219 195 213 186 151 148 168 233 187 258 261 267 278 273 272 266 257 256 256 254 249 248 252 254 255 259 262 265 267 268 268 268 268 268 268 267 266 261 258
200 209 213 212 210 204 205 202 186 172 177 158 131 235 240 259 263 266 265 259 256 256 253 259 263 266 267 268 271 269 266 267 269 271 272 272 272 272 272 272 272 271 270 268
176 178 186 183 183 186 185 183 182 185 195 185 194 224 216 252 247 244 236 230 231 237 248 254 262 269 269 274 273 275 278 278 278 279 281 281 279 277 275 273 272 272 271 270
172 174 179 182 171 175 175 166 161 176 200 210 222 240 199 189 193 204 216 222 227 236 249 262 268 265 268 273 283 286 291 293 298 304 307 306 302 293 288 283 280 278 277 274
171 166 164 167 164 164 166 165 162 162 172 183 191 192 191 189 193 198 205 221 251 294 298 294 287 272 273 295 308 316 324 332 333 333 330 323 323 323 321 317 309 300 289 281
174 175 169 169 173 170 169 171 171 167 166 167 170 174 179 188 201 223 258 296 301 297 298 300 292 273 289 313 318 317 326 335 338 342 342 339 337 336 331 328 331 330 323 314
Height
10973 10972 10977 10979 10982 10984 10984 10983 10989 10994 10995 10994 10988 10987 10985 10986 10984 10981 10976 10973 10972 10974 10973 10974 10976 10980 10984 10988 10994 10996 11000 11005 11009 11012 11016 11019 11022 11027 11033 11031 11027 11024 11029 11034
10964 10965 10963 10967 10974 10979 10981 10983 10985 10993 10997 10999 10993 10990 10989 10990 10987 10983 10979 10977 10977 10977 10978 10977 10979 10984 10986 10990 10995 10997 11002 11005 11009 11012 11014 11017 11019 11022 11027 11032 11030 11030 11030 11029
10956 10957 10956 10962 10969 10975 10977 10980 10984 10987 10993 10996 10995 10995 10993 10992 10990 10984 10982 10981 10982 10981 10982 10982 10983 10986 10990 10992 10995 10999 11003 11006 11008 11011 11013 11015 11016 11020 11023 11025 11026 11025 11027 11027
10952 10952 10952 10957 10967 10968 10970 10978 10982 10984 10990 10991 10991 10993 10992 10991 10988 10990 10986 10984 10985 10986 10985 10987 10989 10991 10992 10993 10995 10999 11001 11004 11007 11009 11012 11013 11014 11017 11020 11022 11024 11027 11028 11027
10948 10946 10951 10953 10967 10967 10966 10974 10980 10985 10987 10991 10985 10989 10989 10990 10990 10989 10989 10989 10989 10989 10989 10991 10993 10994 10995 10996 10995 10996 10998 11002 11004 11005 11007 11010 11012 11014 11016 11019 11023 11031 11031 11026
10943 10952 10943 10952 10961 10959 10962 10972 10982 10983 10982 10988 10992 10991 10993 10994 10991 10991 10991 10993 10992 10993 10993 10993 10994 10996 10996 10996 10996 10996 10996 10998 10999 11001 11003 11005 11008 11011 11013 11017 11021 11024 11007 11012
10935 10936 10939 10948 10955 10957 10965 10971 10977 10979 10982 10987 10994 10991 10994 10995 10993 10990 10992 10993 10996 10997 10996 10996 10994 10995 10996 10996 10995 10995 10995 10996 10996 10997 10998 11001 11003 11006 11009 11012 11014 11014 11018 11024
10925 10935 10941 10943 10948 10953 10963 10972 10966 10972 10983 10982 10985 10980 10980 10983 10986 10991 10992 10995 10998 10998 10996 10997 10995 10995 10994 10993 10993 10993 10993 10993 10994 10995 10995 10996 10998 11001 11004 11007 11004 11006 11012 11031
10914 10919 10934 10937 10941 10945 10951 10960 10956 10958 10966 10973 10980 10972 10967 10974 10980 10988 10992 10995 10998 10996 10991 10997 10996 10994 10993 10994 10993 10991 10989 10989 10988 10988 10987 10989 10991 10994 10997 10999 10996 10998 11007 11021
10911 10918 10929 10928 10935 10948 10949 10945 10947 10956 10964 10969 10971 10973 10964 10966 10973 10982 10990 10992 10986 10987 10992 10996 10992 10993 10992 10993 10993 10990 10988 10986 10985 10984 10982 10982 10983 10986 10989 10991 10990 10989 11000 11007
10912 10915 10920 10923 10928 10941 10945 10941 10944 10949 10954 10961 10963 10959 10961 10963 10970 10976 10981 10988 10987 10985 10989 10989 10988 10990 10991 10993 10992 10990 10988 10985 10984 10983 10982 10981 10982 10983 10986 10987 10986 10984 10992 11002
10908 10911 10915 10919 10922 10931 10937 10941 10945 10949 10951 10954 10965 10963 10962 10965 10971 10975 10975 10976 10981 10981 10981 10984 10986 10988 10990 10991 10990 10988 10986 10986 10984 10983 10982 10983 10982 10982 10984 10986 10987 10986 10986 10992
10899 10900 10908 10914 10918 10922 10928 10934 10935 10940 10941 10949 10970 10972 10972 10971 10970 10969 10969 10970 10972 10975 10977 10980 10982 10985 10986 10985 10985 10984 10984 10983 10982 10981 10981 10981 10981 10982 10983 10985 10987 10987 10988 10989
10896 10898 10908 10912 10916 10924 10925 10927 10930 10934 10942 10955 10957 10952 10962 10960 10959 10959 10960 10962 10965 10968 10971 10974 10976 10977 10978 10979 10979 10979 10979 10979 10979 10979 10979 10978 10979 10980 10981 10982 10985 10986 10986 10986
10893 10903 10908 10911 10914 10916 10919 10922 10929 10933 10942 10944 10945 10944 10943 10948 10950 10949 10949 10952 10956 10961 10963 10966 10968 10970 10971 10972 10973 10973 10974 10973 10974 10975 10975 10975 10976 10977 10978 10980 10982 10983 10983 10983
10896 10896 10902 10908 10908 10908 10913 10918 10925 10928 10933 10934 10932 10931 10942 10951 10946 10946 10942 10943 10946 10952 10955 10957 10960 10963 10965 10966 10967 10967 10968 10968 10968 10970 10970 10970 10971 10972 10973 10974 10975 10976 10976 10977
10889 10900 10904 10905 10905 10907 10908 10911 10919 10919 10929 10931 10928 10931 10939 10940 10937 10936 10938 10938 10942 10946 10948 10950 10952 10955 10957 10959 10960 10962 10961 10962 10962 10962 10963 10964 10965 10965 10966 10968 10968 10969 10970 10969
10885 10895 10898 10897 10903 10903 10910 10914 10913 10912 10927 10931 10934 10938 10935 10933 10938 10933 10931 10932 10936 10941 10942 10943 10945 10947 10950 10952 10953 10954 10954 10954 10954 10956 10956 10957 10958 10958 10958 10959 10960 10960 10962 10962
10879 10881 10882 10892 10894 10892 10901 10907 10910 10919 10926 10934 10933 10937 10940 10937 10934 10930 10933 10934 10932 10935 10938 10937 10936 10939 10941 10942 10944 10943 10945 10945 10946 10946 10947 10948 10947 10947 10947 10948 10948 10949 10949 10950
10875 10877 10883 10887 10893 10893 10903 10906 10912 10915 10920 10920 10924 10923 10915 10923 10920 10924 10930 10935 10931 10931 10932 10929 10929 10931 10932 10933 10934 10934 10935 10935 10935 10935 10934 10934 10934 10934 10933 10933 10934 10934 10934 10935
10873 10877 10879 10882 10885 10888 10899 10898 10907 10912 10924 10916 10913 10929 10920 10911 10915 10916 10925 10933 10929 10926 10925 10923 10923 10923 10924 10925 10926 10927 10926 10925 10924 10922 10921 10920 10920 10920 10919 10918 10917 10917 10917 10919
10870 10872 10875 10878 10882 10888 10889 10896 10903 10907 10909 10913 10923 10930 10927 10905 10913 10917 10922 10928 10924 10920 10919 10918 10916 10916 10917 10918 10918 10916 10915 10915 10914 10913 10911 10909 10908 10906 10905 10903 10902 10902 10902 10903
10867 10870 10871 10875 10879 10882 10885 10892 10897 10900 10897 10899 10907 10904 10913 10913 10912 10915 10920 10922 10918 10917 10917 10916 10914 10913 10913 10913 10912 10911 10910 10909 10907 10905 10903 10901 10898 10896 10894 10892 10890 10889 10889 10888
10866 10868 10871 10874 10878 10882 10884 10889 10893 10894 10892 10892 10894 10899 10904 10907 10911 10915 10918 10915 10914 10915 10913 10912 10911 10910 10910 10909 10909 10907 10906 10904 10902 10899 10896 10894 10891 10888 10885 10883 10881 10879 10877 10876
10865 10868 10870 10873 10876 10880 10883 10887 10893 10896 10897 10899 10901 10905 10909 10912 10915 10916 10914 10913 10912 10910 10908 10907 10907 10906 10906 10905 10904 10903 10901 10900 10898 10895 10892 10889 10885 10882 10879 10877 10874 10872 10869 10867
10866 10868 10870 10874 10876 10879 10883 10886 10891 10896 10901 10905 10907 10909 10911 10912 10911 10910 10909 10908 10907 10906 10904 10903 10903 10902 10902 10901 10901 10901 10900 10897 10895 10892 10888 10885 10881 10879 10877 10876 10873 10868 10864 10861